Location: Newark
(43.6583°N, 1.6617°E)
Time: 00:21:15
(UTC+00:00)

Courier 1B - Pass Details

Date: 29 August 2019
Orbit: 962 x 1209 km, 28.3° (Epoch: 19 September)

Event Time Altitude Azimuth Distance (km) Brightness Sun altitude
Rises 14:47:38 0° 225° (SW) 3,998 11.5 39.1°
Reaches altitude 10° 14:51:26 10° 208° (SSW) 2,993 10.9 38.5°
Maximum altitude 14:56:12 19° 168° (SSE) 2,357 9.9 37.8°
Drops below altitude 10° 15:00:48 10° 126° (SE) 2,873 9.8 37.0°
Sets 15:04:20 0° 109° (ESE) 3,781 10.2 36.4°
